TimeEDT,TemperatureF,Dew PointF,Humidity,Sea Level PressureIn,VisibilityMPH,Wind Direction,Wind SpeedMPH,Gust SpeedMPH,PrecipitationIn,Events,Conditions,WindDirDegrees,DateUTC
12:53 AM,39.9,28.0,63,30.12,10.0,Calm,Calm,-,N/A,,Mostly Cloudy,0,2013-03-29 04:53:00
1:53 AM,34.0,28.0,79,30.13,10.0,Calm,Calm,-,N/A,,Clear,0,2013-03-29 05:53:00
2:53 AM,30.9,27.0,85,30.14,10.0,Calm,Calm,-,N/A,,Clear,0,2013-03-29 06:53:00
3:53 AM,30.9,27.0,85,30.13,10.0,Calm,Calm,-,N/A,,Clear,0,2013-03-29 07:53:00
4:53 AM,28.9,25.0,85,30.13,10.0,Calm,Calm,-,N/A,,Clear,0,2013-03-29 08:53:00
5:53 AM,28.0,25.0,88,30.14,10.0,Calm,Calm,-,N/A,,Clear,0,2013-03-29 09:53:00
6:53 AM,28.0,25.0,88,30.15,10.0,Calm,Calm,-,N/A,,Clear,0,2013-03-29 10:53:00
7:53 AM,35.1,28.0,76,30.16,10.0,Calm,Calm,-,N/A,,Clear,0,2013-03-29 11:53:00
8:53 AM,44.1,28.9,55,30.15,10.0,Variable,3.5,-,N/A,,Clear,0,2013-03-29 12:53:00
9:53 AM,46.9,26.1,44,30.15,10.0,NW,10.4,-,N/A,,Clear,320,2013-03-29 13:53:00
10:53 AM,50.0,25.0,38,30.15,10.0,NW,8.1,-,N/A,,Clear,320,2013-03-29 14:53:00
11:53 AM,52.0,24.1,34,30.13,10.0,West,5.8,-,N/A,,Clear,280,2013-03-29 15:53:00
12:53 PM,51.1,24.1,35,30.11,10.0,NW,9.2,16.1,N/A,,Mostly Cloudy,310,2013-03-29 16:53:00
1:53 PM,54.0,23.0,30,30.08,10.0,NW,10.4,18.4,N/A,,Mostly Cloudy,320,2013-03-29 17:53:00
2:53 PM,55.0,25.0,31,30.07,10.0,NNW,13.8,19.6,N/A,,Mostly Cloudy,330,2013-03-29 18:53:00
3:53 PM,51.1,26.1,38,30.07,10.0,NW,11.5,20.7,N/A,,Overcast,320,2013-03-29 19:53:00
4:53 PM,51.1,26.1,38,30.08,10.0,NNW,10.4,21.9,N/A,,Overcast,340,2013-03-29 20:53:00
5:53 PM,52.0,26.1,37,30.09,10.0,NNW,13.8,23.0,N/A,,Overcast,330,2013-03-29 21:53:00
6:53 PM,50.0,26.1,39,30.09,10.0,NNW,9.2,-,N/A,,Scattered Clouds,340,2013-03-29 22:53:00
7:53 PM,45.0,27.0,49,30.10,10.0,Calm,Calm,-,N/A,,Clear,0,2013-03-29 23:53:00
8:53 PM,41.0,28.9,62,30.12,10.0,Calm,Calm,-,N/A,,Mostly Cloudy,0,2013-03-30 00:53:00
9:53 PM,39.9,28.9,65,30.13,10.0,Calm,Calm,-,N/A,,Mostly Cloudy,0,2013-03-30 01:53:00
10:53 PM,36.0,28.9,76,30.14,10.0,Calm,Calm,-,N/A,,Clear,0,2013-03-30 02:53:00
11:53 PM,33.1,27.0,78,30.14,10.0,Calm,Calm,-,N/A,,Clear,0,2013-03-30 03:53:00